sat.trackr.live / text

‹ back to catalog

STARLINK-1361

NORAD 45567 · 2020-025AN

PAYLOAD ACTIVE UNKNOWN

§ Identity

Operator
Country
US
Launch date
2020-04-22
Launch site
AFETR
Launch vehicle
Mass (kg)
RCS (m²)

Purposes: comms

External: N2YO · Heavens-Above · Gunter

§ Orbital elements

Epoch: 2026-09-13T04:27:23.862240Z

Period
91.13 min
Inclination
53.0357°
Eccentricity
0.0005658
Mean motion
15.80222542 rev/d
Perigee alt
326.0 km
Apogee alt
333.6 km
Semi-major
6,707.9 km
B*
3.9342e-4
RAAN
234.3210°
Arg perigee
51.8063°
Mean anomaly
308.3466°
Rev number
35,490

§ Raw data

STARLINK-13611 45567U 20025AN  26256.18569285  .00075407  00000+0  39342-3 0  99972 45567  53.0357 234.3210 0005658  51.8063 308.3466 15.80222542354906

JSON: /api/v1/satellites/45567 · /tle

For live sub-satellite position, see the globe view (requires WebGL).

§ Visibility from observer

Set your observer location to see the next 7 days of passes ≥ 10°. The values pass through the URL so the page stays shareable.

No JS? Fill the form by hand. The geolocation button needs JavaScript.